• In Austria
  • List of Countries
  • For 7 days
  • Water Temperature
  • Satellite Maps
  • Weather Map
  • News
  • Weather Widgets
  • user-avatar
    Login

    Hourly Weather Tshikapa

    Today, 18 October, Thursday

    Time Temperature Precipitation Wind Pressure Humidity
    00:00 +25°C° 0 mm 1 mps 715 mmHg 90%
    01:00 +24°C° 0 mm 1 mps 715 mmHg 91%
    02:00 +24°C° 0.6 mm 1 mps 716 mmHg 92%
    03:00 +24°C° 0.6 mm 1 mps 716 mmHg 92%
    04:00 +22°C° 0.6 mm 0 mps 716 mmHg 92%
    05:00 +22°C° 1.3 mm 0 mps 716 mmHg 91%
    06:00 +25°C° 1.3 mm 1 mps 717 mmHg 89%
    07:00 +25°C° 0 mm 1 mps 717 mmHg 88%
    08:00 +27°C° 0.2 mm 1 mps 717 mmHg 81%
    09:00 +28°C° 0.2 mm 1 mps 717 mmHg 75%
    10:00 +29°C° 0.2 mm 2 mps 717 mmHg 69%
    11:00 +31°C° 0.1 mm 1 mps 717 mmHg 60%
    12:00 +33°C° 0.1 mm 1 mps 716 mmHg 51%
    13:00 +35°C° 0.1 mm 1 mps 715 mmHg 43%
    14:00 +34°C° 0 mm 1 mps 714 mmHg 44%
    15:00 +33°C° 0 mm 1 mps 714 mmHg 46%
    16:00 +33°C° 0 mm 1 mps 713 mmHg 47%
    17:00 +31°C° 0 mm 1 mps 714 mmHg 54%
    18:00 +29°C° 0 mm 1 mps 714 mmHg 61%
    19:00 +25°C° 0 mm 0 mps 714 mmHg 68%
    20:00 +24°C° 0.4 mm 0 mps 715 mmHg 74%
    21:00 +25°C° 0.4 mm 1 mps 715 mmHg 79%
    22:00 +24°C° 0.4 mm 1 mps 715 mmHg 85%
    23:00 +22°C° 0.1 mm 0 mps 715 mmHg 86%

    Tomorrow, 19 October, Friday

    Time Temperature Precipitation Wind Pressure Humidity
    00:00 +22°C° 0.1 mm 0 mps 715 mmHg 88%
    01:00 +22°C° 0.1 mm 0 mps 714 mmHg 89%
    02:00 +21°C° 0 mm 0 mps 714 mmHg 90%
    03:00 +21°C° 0 mm 0 mps 715 mmHg 90%
    04:00 +21°C° 0 mm 0 mps 715 mmHg 91%
    05:00 +22°C° 0.1 mm 0 mps 715 mmHg 87%
    06:00 +23°C° 0.1 mm 0 mps 716 mmHg 83%
    07:00 +24°C° 0.1 mm 0 mps 717 mmHg 79%
    08:00 +28°C° 0.2 mm 1 mps 717 mmHg 73%
    09:00 +29°C° 0.2 mm 1 mps 717 mmHg 67%
    10:00 +31°C° 0.2 mm 2 mps 717 mmHg 61%
    11:00 +32°C° 0.1 mm 2 mps 717 mmHg 56%
    12:00 +34°C° 0.1 mm 2 mps 716 mmHg 50%
    13:00 +35°C° 0.1 mm 2 mps 715 mmHg 45%
    14:00 +35°C° 0 mm 2 mps 715 mmHg 45%
    15:00 +35°C° 0 mm 2 mps 714 mmHg 45%
    16:00 +35°C° 0 mm 2 mps 714 mmHg 45%
    17:00 +31°C° 0.1 mm 2 mps 714 mmHg 55%
    18:00 +29°C° 0.1 mm 2 mps 715 mmHg 65%
    19:00 +27°C° 0.1 mm 2 mps 715 mmHg 75%
    20:00 +26°C° 0.1 mm 1 mps 716 mmHg 80%
    21:00 +25°C° 0.1 mm 1 mps 716 mmHg 85%
    22:00 +25°C° 0.1 mm 1 mps 717 mmHg 90%
    23:00 +24°C° 0 mm 1 mps 716 mmHg 91%

    Day after tomorrow, 20 October, Saturday

    Time Temperature Precipitation Wind Pressure Humidity
    00:00 +24°C° 0 mm 1 mps 716 mmHg 92%
    01:00 +24°C° 0 mm 1 mps 715 mmHg 94%
    02:00 +23°C° 0 mm 1 mps 715 mmHg 94%
    03:00 +23°C° 0 mm 1 mps 715 mmHg 94%
    04:00 +23°C° 0 mm 1 mps 715 mmHg 95%
    05:00 +24°C° 0 mm 1 mps 716 mmHg 89%
    06:00 +25°C° 0 mm 1 mps 716 mmHg 83%
    07:00 +26°C° 0 mm 1 mps 717 mmHg 77%
    08:00 +29°C° 0 mm 1 mps 717 mmHg 67%
    09:00 +32°C° 0 mm 1 mps 718 mmHg 56%
    10:00 +35°C° 0 mm 2 mps 718 mmHg 45%
    11:00 +35°C° 0 mm 2 mps 717 mmHg 44%
    12:00 +35°C° 0 mm 1 mps 715 mmHg 42%
    13:00 +35°C° 0 mm 1 mps 714 mmHg 41%
    14:00 +34°C° 0 mm 1 mps 714 mmHg 44%
    15:00 +34°C° 0 mm 1 mps 714 mmHg 47%
    16:00 +33°C° 0 mm 1 mps 714 mmHg 49%
    17:00 +30°C° 3.1 mm 1 mps 714 mmHg 63%
    18:00 +28°C° 3.1 mm 2 mps 715 mmHg 77%
    19:00 +25°C° 3.1 mm 2 mps 715 mmHg 92%
    20:00 +25°C° 7.5 mm 2 mps 716 mmHg 93%
    21:00 +25°C° 7.5 mm 1 mps 716 mmHg 95%
    22:00 +24°C° 7.5 mm 1 mps 717 mmHg 96%
    23:00 +24°C° 1.8 mm 1 mps 717 mmHg 97%

    21 October, Sunday

    Time Temperature Precipitation Wind Pressure Humidity
    00:00 +24°C° 1.8 mm 1 mps 716 mmHg 97%
    01:00 +24°C° 1.8 mm 1 mps 716 mmHg 98%
    02:00 +24°C° 0.1 mm 1 mps 716 mmHg 97%
    03:00 +24°C° 0.1 mm 1 mps 715 mmHg 97%
    04:00 +22°C° 0.1 mm 0 mps 715 mmHg 97%
    05:00 +22°C° 0 mm 0 mps 716 mmHg 96%
    06:00 +23°C° 0 mm 0 mps 716 mmHg 94%
    07:00 +23°C° 0 mm 0 mps 717 mmHg 93%
    08:00 +25°C° 0 mm 0 mps 717 mmHg 82%
    09:00 +27°C° 0 mm 0 mps 717 mmHg 71%
    10:00 +29°C° 0 mm 0 mps 718 mmHg 59%
    11:00 +30°C° 0 mm 0 mps 717 mmHg 54%
    12:00 +32°C° 0 mm 0 mps 716 mmHg 49%
    13:00 +33°C° 0 mm 0 mps 715 mmHg 44%
    14:00 +32°C° 0 mm 0 mps 715 mmHg 48%
    15:00 +31°C° 0 mm 0 mps 715 mmHg 52%
    16:00 +30°C° 0 mm 0 mps 714 mmHg 55%
    17:00 +30°C° 0 mm 1 mps 715 mmHg 61%
    18:00 +29°C° 0 mm 1 mps 715 mmHg 67%
    19:00 +27°C° 0 mm 1 mps 716 mmHg 73%
    20:00 +26°C° 0.3 mm 1 mps 716 mmHg 79%
    21:00 +25°C° 0.3 mm 1 mps 716 mmHg 84%
    22:00 +25°C° 0.3 mm 1 mps 716 mmHg 90%
    23:00 +24°C° 0.1 mm 1 mps 716 mmHg 90%

    22 October, Monday

    Time Temperature Precipitation Wind Pressure Humidity
    00:00 +24°C° 0.1 mm 1 mps 715 mmHg 91%
    01:00 +22°C° 0.1 mm 0 mps 714 mmHg 92%
    02:00 +22°C° 0 mm 0 mps 714 mmHg 92%
    03:00 +22°C° 0 mm 0 mps 714 mmHg 92%
    04:00 +21°C° 0 mm 0 mps 714 mmHg 92%
    05:00 +24°C° 0 mm 1 mps 715 mmHg 90%
    06:00 +25°C° 0 mm 1 mps 716 mmHg 88%
    07:00 +25°C° 0 mm 1 mps 716 mmHg 87%
    08:00 +27°C° 0.1 mm 1 mps 716 mmHg 77%
    09:00 +30°C° 0.1 mm 1 mps 716 mmHg 67%
    10:00 +32°C° 0.1 mm 1 mps 717 mmHg 57%
    11:00 +33°C° 0.1 mm 1 mps 716 mmHg 51%
    12:00 +35°C° 0.1 mm 2 mps 715 mmHg 45%
    13:00 +36°C° 0.1 mm 2 mps 714 mmHg 39%
    14:00 +36°C° 0 mm 2 mps 714 mmHg 42%
    15:00 +35°C° 0 mm 2 mps 714 mmHg 45%
    16:00 +33°C° 0 mm 1 mps 714 mmHg 48%
    17:00 +31°C° 0 mm 1 mps 714 mmHg 53%
    18:00 +30°C° 0 mm 1 mps 715 mmHg 58%
    19:00 +28°C° 0 mm 1 mps 715 mmHg 63%
    20:00 +27°C° 0 mm 1 mps 715 mmHg 66%
    21:00 +27°C° 0 mm 1 mps 715 mmHg 68%
    22:00 +24°C° 0 mm 0 mps 715 mmHg 71%
    23:00 +24°C° 0 mm 0 mps 715 mmHg 71%

    23 October, Tuesday

    Time Temperature Precipitation Wind Pressure Humidity
    00:00 +23°C° 0 mm 0 mps 715 mmHg 71%
    01:00 +23°C° 0 mm 0 mps 714 mmHg 71%
    02:00 +23°C° 0 mm 0 mps 714 mmHg 72%
    03:00 +23°C° 0 mm 0 mps 714 mmHg 73%
    04:00 +23°C° 0 mm 0 mps 714 mmHg 73%
    05:00 +24°C° 0 mm 0 mps 715 mmHg 69%
    06:00 +25°C° 0 mm 0 mps 716 mmHg 65%
    07:00 +29°C° 0 mm 1 mps 716 mmHg 61%
    08:00 +32°C° 0 mm 1 mps 716 mmHg 51%
    09:00 +35°C° 0 mm 1 mps 717 mmHg 42%
    10:00 +40°C° 0 mm 1 mps 717 mmHg 32%
    11:00 +39°C° 0 mm 1 mps 716 mmHg 33%
    12:00 +37°C° 0 mm 1 mps 715 mmHg 34%
    13:00 +37°C° 0 mm 2 mps 714 mmHg 35%
    14:00 +35°C° 0 mm 1 mps 713 mmHg 38%
    15:00 +34°C° 0 mm 1 mps 713 mmHg 40%
    16:00 +34°C° 0 mm 1 mps 713 mmHg 42%
    17:00 +32°C° 0 mm 1 mps 714 mmHg 47%
    18:00 +30°C° 0 mm 1 mps 714 mmHg 52%
    19:00 +26°C° 0 mm 0 mps 715 mmHg 58%
    20:00 +28°C° 0 mm 1 mps 715 mmHg 60%
    21:00 +27°C° 0 mm 1 mps 715 mmHg 63%
    22:00 +27°C° 0 mm 1 mps 715 mmHg 65%
    23:00 +24°C° 0.3 mm 0 mps 714 mmHg 71%
    Show more